Overview Statistics Trail Chart Weather Telemetry Raw packets
 

This is the latest recevied weather packets stored in our database for station/object IR9AK-10. If no packets are shown the sender has not sent any weather packets the latest 10 day(s).

<< 52 53 54 55 56 57 >>
Time Temp. Humidity Pressure Rain* Wind** Luminosity Snow
1787791968 41.11° C 44% 1060.4 hPa - - - -
1787791369 41.67° C 43% 1060.5 hPa - - - -
1787790806 41.67° C 42% 1060.6 hPa - - - -
1787790770 41.67° C 42% 1060.6 hPa - - - -
1787790173 41.67° C 41% 1060.5 hPa - - - -
1787789571 41.11° C 40% 1060.6 hPa - - - -
1787788972 41.11° C 38% 1060.7 hPa - - - -
1787788372 41.11° C 35% 1060.6 hPa - - - -
1787787772 41.67° C 32% 1060.4 hPa - - - -
1787787173 41.67° C 27% 1060.2 hPa - - - -
1787786573 41.67° C 32% 1060.3 hPa - - - -
1787785975 42.22° C 33% 1060.4 hPa - - - -
1787785376 41.67° C 28% 1060.4 hPa - - - -
1787784777 41.67° C 29% 1060.4 hPa - - - -
1787784179 41.67° C 28% 1060.4 hPa - - - -
1787783579 41.67° C 31% 1060.4 hPa - - - -
1787782979 41.67° C 27% 1060.5 hPa - - - -
1787782381 41.67° C 29% 1060.6 hPa - - - -
1787781782 41.11° C 26% 1060.6 hPa - - - -
1787781184 41.67° C 26% 1060.6 hPa - - - -
1787780586 41.67° C 26% 1060.6 hPa - - - -
1787779986 41.67° C 24% 1060.4 hPa - - - -
1787779388 41.67° C 25% 1060.4 hPa - - - -
1787778789 41.67° C 26% 1060.5 hPa - - - -
1787778190 41.67° C 27% 1060.5 hPa - - - -

* Rain since midnight (hover to see other rain measurements)
** Current wind speed in m/s (hover to see current wind gust speed)